User: anonymous
Location: Vancouver
(49.2500°N, 123.1330°W)
Time: 00:29:42
(UTC-07:00)
Language:

Transit 2A Rocket - Orbit

View from above orbital plane
View from above orbital plane
View from above satellite
View from above satellite

Ground track
Ground track

The orbit data is extracted from the following two-line orbital elements,

1 00047U 60007C   14105.17706483  .00000311  00000-0  96165-4 0  1810
2 00047 066.6678 062.6908 0226627 154.2507 207.0091 14.41063620810007
Epoch (UTC): 15 April 2014 04:14:58
Eccentricity: 0.0226627
inclination: 66.6678°
perigee height: 593 km
apogee height: 916 km
right ascension of ascending node: 62.6908°
argument of perigee: 154.2507°
revolutions per day: 14.41063620
mean anomaly at epoch: 207.0091°
orbit number at epoch: 81000

The dashed part of the orbit path shows where the satellite is in the earth's shadow,  

DLR